Starlink 11648

operational
NORAD ID: 63313 Int'l Des: 2025-057 Owner: SPXS Country: US Constellation: starlink
LEOCIRCULAR

Starlink 11648について

説明を読み込み中...

リアルタイム位置

3D地球を読み込み中...

次回通過

高度履歴

Altitude vs Time

uPlot chart will show altitude changes over time

軌道要素

1 63313U 25057G 25353.81788902 .00182426 00000-0 13880-2 0 9991
2 63313 43.0006 26.1699 0001424 296.6801 63.3921 15.70945855 44615
Epoch: Dec 19, 2025 • Age: 8 hours

現在のステータス

高度 359.8 km
速度 7.70 km/s
衛星直下点 43.11°N, 32.8°W
打ち上げ日 Mar 18, 2025
運用期間 0.7 years
タイプ internet

技術仕様

分類 Payload
質量 960.00 kg
乾燥質量 910.00 kg
総質量 960.00 kg
長さ 0.30 m
直径 4.10 m
スパン 29.00 m
形状 Box + pan
製造者 SPXS
バスタイプ Starlink V2MD
フェーズステータス In Orbit
所有者/国 SPXS/US

大規模コンステレーション

Loading constellations...